PAJNPAGS

Guest
Details From PAJN - Juneau Intl
To PAGS - GUSTAVUS
Flight Number -
Tags generated
Created
Modified
Stats Distance 36 nm / 66 km
Max Altitude 1,300 ft / 396 m
Waypoints 3
Social Downloads 0
Likes 0
Share VATSIM

Download

Looking for another format? Having issues loading an existing format? Contact us
Advertisement - Login to hide

Notes

Basic altitude profile: - Ascent Rate: 2000ft/min - Ascent Speed: 190kts - Cruise Altitude: 5000ft - Cruise Speed: 220kts - Descent Rate: 900ft/min - Descent Speed: 190kts Options: - Use NATs: yes - Use PACOTS: yes - Use low airways: yes - Use high airways: yes

Route

PAJN CGL PAGS

ID Type Via Altitude Latitude Longitude Leg Dist Tot Dist Heading (true) Name
O PAJN APT - 0 ft / 0 m 58.35496˚ -134.57628˚ - 0 nm - Juneau Intl
CGL NDB - 1,300 ft / 396 m 58.35933˚ -134.69944˚ 3 nm 3 nm 274° / 274° COGHLAN ISLAND NDB
O PAGS APT - 0 ft / 0 m 58.42469˚ -135.70896˚ 32 nm 35 nm 277° / 277° GUSTAVUS

Altitude Profile

Advertisement - Login to hide

PAJN

Details ICAO PAJN (JNU)
Name Juneau Intl
Region USA (Alaska)
Timezone America/Juneau (UTC-8.0)
Stats Elevation 21 ft / 6 m (AMSL)
Location 58.354964° -134.576278°
Runways 1
Magnetic Variation 19.019° E

METAR

PAJN 241953Z 13012KT 9SM -RA BKN038 BKN045 OVC055 09/06 A2999

Decode

TAF

PAJN 241725Z 2418/2518 12014G20KT P6SM VCSH FEW017 SCT040 OVC060 FM250200 10010KT P6SM -SHRA OVC040 FM251500 11014G20KT P6SM -RA OVC040

Decode

Departure Runways

ID Width Length Bearing (true) Bearing (mag) Surface Threshold Offset Overrun Length
08 150 ft / 46 m 8,430 ft / 2,570 m 104.87° 85.85° Asphalt 0 ft / 0 m 450 ft / 137 m
26 150 ft / 46 m 8,430 ft / 2,570 m 284.90° 265.88° Asphalt 0 ft / 0 m 225 ft / 69 m

PAGS

Details ICAO PAGS (GST)
Name GUSTAVUS
Region USA (Alaska)
Timezone America/Juneau (UTC-8.0)
Stats Elevation 34 ft / 10 m (AMSL)
Location 58.424690° -135.708964°
Runways 2
Magnetic Variation 18.922° E

METAR

PAGS 241956Z AUTO 12012G18KT 10SM FEW050 BKN070 BKN080 11/04 A2998 RMK AO2 RAB10E22 SLP152 P0000 T01060044

Decode

TAF

PAGS 241725Z 2418/2518 13010KT P6SM -SHRA OVC040 FM251500 13008KT P6SM -RA BKN025 OVC040 AMD LTD TO CLD VIS AND WIND

Decode

Destination Runways

ID Width Length Bearing (true) Bearing (mag) Surface Threshold Offset Overrun Length
02 60 ft / 18 m 3,003 ft / 915 m 40.96° 22.04° Asphalt 0 ft / 0 m 0 ft / 0 m
11 150 ft / 46 m 6,704 ft / 2,044 m 135.06° 116.14° Asphalt 0 ft / 0 m 0 ft / 0 m
20 60 ft / 18 m 3,003 ft / 915 m 220.97° 202.05° Asphalt 0 ft / 0 m 0 ft / 0 m
29 150 ft / 46 m 6,704 ft / 2,044 m 315.08° 296.16° Asphalt 0 ft / 0 m 0 ft / 0 m

Popular Alternatives